User: anonymous   Login
Location: Wildcat Hills Observatory
(41.6350°N, 103.6812°W)
Time: 22:14:33
(UTC-06:00)
Language:

Cosmos 1634 Rocket - Orbit

View from above orbital plane
View from above orbital plane
View from above satellite
View from above satellite

Ground track
Ground track

The orbit data is extracted from the following two-line orbital elements,

1 15598U 85022B   14297.09381170  .00000022  00000-0  69343-5 0  7630
2 15598 082.9349 105.9135 0020952 294.3369 202.7509 13.76490712487412
Epoch (UTC): 24 October 2014 02:15:05
Eccentricity: 0.0020952
inclination: 82.9349°
perigee height: 961 km
apogee height: 992 km
right ascension of ascending node: 105.9135°
argument of perigee: 294.3369°
revolutions per day: 13.76490712
mean anomaly at epoch: 202.7509°
orbit number at epoch: 48741

The dashed part of the orbit path shows where the satellite is in the earth's shadow,  

DLR